Location: Seasalter
(51.3333°N, 1.0167°E)
Time: 04:19:09
(UTC+00:00)

ATLAS 5 CENTAUR R/B - Pass Details

Date: 30 April 2024
Orbit: 421 x 1170 km, 63.3° (Epoch: 18 May)

Event Time Altitude Azimuth Distance (km) Brightness Sun altitude
Rises 00:10:36 0° 313° (NW) 2,908 5.6 -23.7°
Reaches altitude 10° 00:12:41 10° 311° (NW) 2,099 4.7 -23.7°
Maximum altitude 00:17:28 67° 230° (SW) 845 1.9 -23.6°
Enters shadow 00:18:02 62° 194° (SSW) 890 2.0 -23.6°
